TimeAKDT,TemperatureF,Dew PointF,Humidity,Sea Level PressureIn,VisibilityMPH,Wind Direction,Wind SpeedMPH,Gust SpeedMPH,PrecipitationIn,Events,Conditions,WindDirDegrees,DateUTC
12:53 AM,21.9,17.1,82,29.95,10.0,NW,3.5,-,N/A,,Mostly Cloudy,310,2013-05-13 08:53:00
1:53 AM,21.9,16.0,78,29.95,10.0,NW,9.2,-,N/A,,Scattered Clouds,310,2013-05-13 09:53:00
2:53 AM,21.9,16.0,78,29.94,10.0,North,10.4,-,N/A,,Scattered Clouds,350,2013-05-13 10:53:00
3:53 AM,21.0,15.1,78,29.94,10.0,NW,9.2,-,N/A,,Scattered Clouds,320,2013-05-13 11:53:00
4:53 AM,21.9,15.1,75,29.95,10.0,NNW,4.6,-,N/A,,Scattered Clouds,340,2013-05-13 12:53:00
5:53 AM,21.9,15.1,75,29.93,10.0,Calm,Calm,-,N/A,,Mostly Cloudy,0,2013-05-13 13:53:00
6:53 AM,21.0,14.0,74,29.93,10.0,WNW,11.5,-,N/A,,Scattered Clouds,300,2013-05-13 14:53:00
7:53 AM,21.9,14.0,72,29.92,10.0,NNW,13.8,-,N/A,,Scattered Clouds,330,2013-05-13 15:53:00
8:53 AM,23.0,12.9,65,29.92,10.0,North,11.5,-,N/A,,Mostly Cloudy,350,2013-05-13 16:53:00
9:53 AM,23.0,15.1,72,29.92,10.0,NNW,13.8,-,N/A,,Scattered Clouds,340,2013-05-13 17:53:00
10:53 AM,24.1,14.0,65,29.93,10.0,North,12.7,-,N/A,,Scattered Clouds,360,2013-05-13 18:53:00
12:53 PM,24.1,10.9,57,29.92,10.0,NNW,8.1,-,N/A,,Scattered Clouds,340,2013-05-13 20:53:00
1:53 PM,26.1,10.9,53,29.92,10.0,NE,3.5,-,N/A,,Scattered Clouds,40,2013-05-13 21:53:00
2:53 PM,25.0,16.0,69,29.92,10.0,SSE,8.1,-,N/A,,Scattered Clouds,160,2013-05-13 22:53:00
3:53 PM,24.8,15.8,69,29.91,10.0,SSE,6.9,-,N/A,,Mostly Cloudy,160,2013-05-13 23:53:00
4:20 PM,26.6,15.8,64,29.91,10.0,NNW,9.2,-,N/A,,Mostly Cloudy,340,2013-05-14 00:20:00
4:53 PM,26.1,14.0,60,29.92,10.0,NNW,13.8,-,N/A,,Scattered Clouds,340,2013-05-14 00:53:00
5:53 PM,27.0,14.0,58,29.91,10.0,NNW,12.7,-,N/A,,Scattered Clouds,340,2013-05-14 01:53:00
6:53 PM,25.0,10.0,53,29.91,10.0,North,10.4,-,N/A,,Partly Cloudy,10,2013-05-14 02:53:00
7:53 PM,25.0,10.9,55,29.90,10.0,North,11.5,-,N/A,,Partly Cloudy,350,2013-05-14 03:53:00
8:53 PM,24.1,10.9,57,29.90,10.0,North,11.5,-,N/A,,Partly Cloudy,350,2013-05-14 04:53:00
9:53 PM,23.0,12.0,63,29.89,10.0,NNW,10.4,-,N/A,,Partly Cloudy,340,2013-05-14 05:53:00
10:53 PM,21.0,10.9,65,29.89,10.0,North,8.1,-,N/A,,Clear,350,2013-05-14 06:53:00
11:53 PM,18.0,10.0,71,29.89,10.0,North,8.1,-,N/A,,Partly Cloudy,350,2013-05-14 07:53:00